Home   Weather   Ingelheim am Rhein   Past weeks

Flag for Germany Past Weather in Ingelheim am Rhein, Rhineland-Palatinate, Germany — Yesterday and Last 2 Weeks

Now
75 °F

Passing clouds.


Feels Like: 77 °F
Forecast: 60 / 78 °F
Wind: 6 mph from Southeast

Location: Wiesbaden Airport

Current Time: Aug 16, 2017 at 7:22:17 pm

Latest Report: Aug 16, 2017 at 6:56 pm


Visibility: N/A

Pressure: 30.11 "Hg

Humidity: 61%

Dew Point: 61 °F

Location of Ingelheim am RheinLocation

Past Weather in Ingelheim am Rhein — Graph

°F

Ingelheim am Rhein Temperature Yesterday

Maximum temperature yesterday: 79 °F (at 12:56 pm)
Minimum temperature yesterday: 58 °F (at 6:56 am)
Average temperature yesterday: 68 °F

High & Low Weather Summary for the Past Weeks

 TemperatureHumidityPressure
High82 °F (Aug 3, 2:56 pm)100% (Aug 2, 4:58 am)30.22 "Hg (Aug 2, 4:58 am)
Low51 °F (Aug 7, 4:56 am)34% (Aug 7, 3:56 pm)29.83 "Hg (Aug 8, 2:56 pm)
Average66 °F77%30.04 "Hg
* Reported Aug 1 5:58 pm — Aug 16 5:56 pm, Ingelheim am Rhein. Weather by CustomWeather, © 2017

Note: Actual official high and low records may vary slightly from our data, if they occured in-between our weather recording intervals... More about our weather records

Advertising

Ingelheim am Rhein Weather History for the Previous 24 Hours

Scroll right to see more
 ConditionsComfort  
Time TempWeatherWind HumidityBarometerVisibility
5:56 pm
Wed, Aug 16
75 °FPassing clouds.7 mph57%30.11 "HgN/A
4:56 pm77 °FPassing clouds.5 mph51%30.12 "HgN/A
3:56 pm75 °FPartly sunny.3 mph54%30.13 "HgN/A
2:56 pm75 °FSunny.6 mph57%30.14 "HgN/A
1:56 pm75 °FSunny.No wind59%30.15 "HgN/A
12:56 pm73 °FPartly sunny.3 mph65%30.16 "HgN/A
11:56 am72 °FScattered clouds.No wind68%30.17 "HgN/A
11:16 am72 °FPartly sunny.5 mph73%30.18 "HgN/A
10:56 am71 °FScattered clouds.3 mph73%30.18 "HgN/A
10:36 am70 °FBroken clouds.No wind73%30.18 "HgN/A
10:06 am68 °FMore clouds than sun.No wind78%30.17 "HgN/A
8:56 am65 °FPartly sunny.No wind92%30.16 "HgN/A
8:26 am64 °FBroken clouds.3 mph94%30.16 "HgN/A
7:56 am64 °FOvercast.No wind96%30.16 "HgN/A
6:56 am61 °FOvercast.No wind97%30.16 "HgN/A
6:36 am61 °FPartly sunny.No wind100%30.16 "HgN/A
5:56 am61 °FPartly cloudy.No wind100%30.14 "HgN/A
4:56 am63 °FClear.No wind94%30.13 "HgN/A
3:56 am64 °FClear.No wind94%30.11 "HgN/A
3:12 am66 °FPassing clouds.5 mph94%30.11 "HgN/A
2:56 am66 °FLight rain. Passing clouds.5 mph97%30.11 "HgN/A
1:56 am64 °FClear.No wind100%30.10 "HgN/A
1:34 am64 °FClear.No wind100%30.09 "HgN/A
1:14 am66 °FPassing clouds.No wind94%30.09 "HgN/A
1:05 am66 °FLight rain. Passing clouds.No wind94%30.09 "HgN/A
11:56 pm
Tue, Aug 15
64 °FClear.No wind100%30.08 "HgN/A
11:23 pm66 °FDrizzle. Overcast.No wind94%30.07 "HgN/A
10:56 pm66 °FPassing clouds.No wind94%30.07 "HgN/A
9:56 pm66 °FPassing clouds.No wind94%30.06 "HgN/A
9:10 pm68 °FClear.No wind88%30.05 "HgN/A
9:03 pm68 °FPassing clouds.No wind88%30.05 "HgN/A
7:56 pm68 °FPartly sunny.No wind88%30.04 "HgN/A
Weather by CustomWeather, © 2017

See weather overviewHow to use our weather pages